Regional Weather Roundup
Issued by NWS Northern Indiana

Home | Current Version | Previous Version | Text Only | Print | Product List | Glossary Off
Versions: 1 2 3 4 5 6 7 8 9 10 11 12 13 14 15 16 17 18 19 20 21 22 23 24 25 26 27 28 29 30 31 32 33 34 35 36 37 38 39 40 41 42 43 44 45 46 47 48 49 50

000
ASUS43 KIWX 040810
RWRIWX

KIWX WEATHER ROUNDUP
NATIONAL WEATHER SERVICE NORTHERN INDIANA
400 AM EDT MON MAY 04 2015

NOTE: "FAIR" INDICATES FEW OR NO CLOUDS BELOW 12,000 FEET WITH NO
SIGNIFICANT WEATHER AND/OR OBSTRUCTIONS TO VISIBILITY.

* THESE STATIONS ARE NOT UNDER NWS QUALITY CONTROL. THEY ALSO MAY NOT
  REPORT WEATHER SUCH AS PRECIPITATION OR FOG.

INZ001>027-040900-
NORTHERN INDIANA

CITY           SKY/WX    TMP DP  RH WIND       PRES   REMARKS
GARY*          MOCLDY    69  39  33 S7        29.93F
VALPARAISO     FAIR      65  44  46 SW10      29.96F
MICHIGAN CITY* MOCLDY    64  37  36 S12       29.95F
LAPORTE*       MOCLDY    65  46  50 SW7       29.97S
KNOX*          PTCLDY    64  25  22 S14G20    29.96F
SOUTH BEND     MOCLDY    66  45  46 S12       29.97S
GOSHEN         MOCLDY    65  47  52 S12       29.99S
MONTICELLO*    PTCLDY    64  49  58 S10       30.00S
LOGANSPORT*    PTCLDY    57  45  62 S9        30.03S
ROCHESTER*     MOCLDY    66  46  48 S8        30.01F
WARSAW*        MOCLDY    63  46  55 CALM      30.01S
ANGOLA*        MOCLDY    64  54  68 SW6       30.02S
FORT WAYNE     CLOUDY    62  49  62 S10       30.04S
HUNTINGTON*    MOCLDY    62  48  60 S6        30.03S
PERU/GRISSOM   MOCLDY    62  49  61 SW10      30.02S
MARION*        PTCLDY    60  47  63 S9        30.05S

$$
INZ028>050-040900-
CENTRAL INDIANA

CITY           SKY/WX    TMP DP  RH WIND       PRES   REMARKS
LAFAYETTE      PTCLDY    61  48  62 SW6       30.02S
MUNCIE*        PTCLDY    62  48  60 S8        30.06S
INDIANAPOLIS   PTCLDY    59  47  64 S8        30.04S

$$
MIZ043>046-050>051-056>058-064>065-071>073-077>080-040900-
SOUTHWEST LOWER MICHIGAN

CITY           SKY/WX    TMP DP  RH WIND       PRES   REMARKS
BATTLE CREEK   LGT RAIN  60  54  80 S12       30.01S
BENTON HARBOR  CLOUDY    65  48  54 S9        29.93F
COLDWATER*     CLOUDY    64  46  51 SW3       30.01S
HILLSDALE*     MOCLDY    64  47  55 S6        30.03S
HOLLAND        CLOUDY    61  54  77 S10       29.92F
GRAND RAPIDS   LGT RAIN  59  55  87 S12       29.96F FOG
KALAMAZOO      LGT RAIN  60  55  83 SE6       29.98F
STURGIS*       CLOUDY    64  48  55 CALM      30.01R
THREE RIVERS*  CLOUDY    63  51  66 SE5       29.99F

$$
OHZ001>008-015>018-024>025-040900-
NORTHWEST OHIO

CITY           SKY/WX    TMP DP  RH WIND       PRES   REMARKS
WAUSEON*       FAIR      61  48  63 S9        30.03S
DEFIANCE       PTCLDY    62  48  60 S7        30.03S
FINDLAY        CLEAR     60  47  61 S10       30.05S
TOLEDO EXPRESS PTCLDY    63  46  54 S9        30.03S
TOLEDO METCALF PTCLDY    63  45  51 S10       30.05R
LIMA           CLEAR     61  46  57 S9        30.07S

$$
AND FOR LAKE MICHIGAN COASTAL AND OPEN LAKE BUOY OBSERVATIONS

STATION/POSITION TEMP    WIND        PRES    VSBY  WAVE
                 AIR SEA DIR/SP/G                  HT/PER
                 (F)     (DEG/KT/KT) (MB)    (MI)  (FT/S)
CALUMET HARBOR    68     200/ 11/ 17   N/A
MICHIGAN CITY     67     160/ 18/ 22   N/A
BURNS HARBOR      66     190/ 14/ 19 1013.9F
SAINT JOSEPH      70     160/  8/ 16 1013.9S
4 MI NW BRIDGMAN  60 48  230/ 14/ 16   N/A           3/ 3
MICHIGAN CITY     62 50  210/ 14/ 17   N/A           1/ 2

$$
&&



USA.gov is the U.S. government's official web portal to all federal, state and local government web resources and services.